Location: Newark
(40.7360°N, 74.1730°W)
Time: 08:12:54
(UTC-05:00)

Amateur Radio Satellites - All Passes

Search period start: 01 February 2015 07:42
Search period end: 02 February 2015 07:42
Location: Newark, 40.7360°N, 74.1730°W

Satellite Date Start Highest point End Downlink Frequencies (MHz)
Time Altitude Azimuth
STRAND 1 01 Feb 07:46:00 07:46:45 10° 274° (W) 07:47:07 437.568
SO-50 01 Feb 08:00:49 08:01:10 10° 108° (ESE) 08:01:49 436.795
DOVE 4 01 Feb 08:04:27 08:07:54 19° 89° (E) 08:11:23 437.250
GOMX 1 01 Feb 08:06:44 08:11:17 28° 92° (E) 08:15:43 467.674
CANX-2 01 Feb 08:11:45 08:15:26 29° 95° (E) 08:19:08 2200.000
AAUSAT CUBESAT 2 01 Feb 08:12:20 08:14:54 16° 91° (E) 08:17:36 437.432
TIGRISAT 01 Feb 08:18:27 08:19:15 10° 62° (ENE) 08:20:18 435.000
BRITE-PL 01 Feb 08:27:17 08:32:55 65° 100° (E) 08:38:14 437.365/2234.400
YUBILEINY 01 Feb 08:31:33 08:36:57 17° 281° (W) 08:41:49 435.215
CUTE 1.7 + AOD 2 01 Feb 08:35:07 08:39:14 49° 99° (E) 08:43:19 437.475
PHONESAT 2.4 01 Feb 08:47:51 08:51:26 67° 167° (SSE) 08:55:02 2401.200-2431.200
Oscar 11 01 Feb 08:48:43 08:51:55 21° 93° (E) 08:55:13 145.826/435.025
POPSAT HIP 1 01 Feb 08:49:17 08:50:49 12° 64° (ENE) 08:52:35 437.405
DUCHIFAT 1 01 Feb 08:49:58 08:51:30 12° 64° (ENE) 08:53:15 145.980
UWE-3 01 Feb 08:51:58 08:54:01 13° 88° (E) 08:56:15 435.000/436.395/437.385
SEEDS 01 Feb 09:01:06 09:05:19 85° 101° (E) 09:09:30 437.485
CINEMA 3 01 Feb 09:03:41 09:08:11 39° 97° (E) 09:12:28 145.822/145.860
VERMONT LUNAR 01 Feb 09:07:37 09:11:06 87° 178° (S) 09:14:37 437.305
UNISAT 6 01 Feb 09:09:12 09:13:27 35° 71° (ENE) 09:17:43 437.425
RS-15 01 Feb 09:15:42 09:23:13 20° 3° (N) 09:30:59 29.354- 29.394
HO-68 01 Feb 09:19:37 09:26:46 76° 289° (WNW) 09:33:55 435.675
COMPASS 1 01 Feb 09:22:57 09:27:05 65° 285° (WNW) 09:31:12 437.405
NANOSAT C BR1 01 Feb 09:23:04 09:26:38 27° 69° (ENE) 09:30:19 145.865
DELFI C3 01 Feb 09:23:15 09:27:04 39° 98° (E) 09:30:53 145.870
HUMSAT D 01 Feb 09:25:29 09:27:25 13° 89° (E) 09:29:33 437.325/437.525
UKube-1 01 Feb 09:25:32 09:29:17 28° 96° (E) 09:33:05 .
SO-50 01 Feb 09:36:29 09:41:04 84° 306° (NW) 09:45:49 436.795
QB50P2 01 Feb 09:38:50 09:42:51 41° 72° (ENE) 09:46:56 145.880/145.840
DOVE 4 01 Feb 09:41:03 09:46:04 50° 288° (WNW) 09:50:45 437.250
BUGSAT 1 01 Feb 09:41:39 09:45:18 32° 71° (ENE) 09:49:04 437.445
GOMX 1 01 Feb 09:44:34 09:49:28 36° 291° (WNW) 09:54:05 467.674
BEESAT 2 01 Feb 09:44:51 09:48:48 40° 52° (NE) 09:52:44 435.950
ANTELSAT 01 Feb 09:44:55 09:49:39 83° 76° (ENE) 09:54:21 437.575/2403.000
ZACube-1 01 Feb 09:46:42 09:50:54 44° 98° (E) 09:55:01 437.345
QB50P1 01 Feb 09:46:51 09:50:58 49° 74° (ENE) 09:55:10 145.935-145.965
AAUSAT CUBESAT 2 01 Feb 09:46:54 09:50:47 39° 288° (WNW) 09:54:39 437.432
CANX-2 01 Feb 09:47:54 09:51:17 23° 291° (WNW) 09:54:33 2200.000
DX 1 01 Feb 09:49:57 09:54:17 55° 100° (E) 09:58:36 434.975-435.025
TIGRISAT 01 Feb 09:50:40 09:55:24 88° 257° (WSW) 10:00:07 435.000
CUBEBUG 2 01 Feb 09:53:33 09:58:06 78° 102° (ESE) 10:02:28 437.445
BEESAT 3 01 Feb 09:55:27 09:59:35 59° 56° (NE) 10:03:38 437.485
FUNcube-1 01 Feb 09:57:25 10:01:46 58° 100° (E) 10:05:58 145.935
AIST 2 01 Feb 09:58:12 10:01:48 26° 47° (NE) 10:05:23 435.215
POLYITAN 1 01 Feb 10:03:43 10:08:01 79° 76° (ENE) 10:12:22 437.675
50 SAT 01 Feb 10:05:20 10:08:46 27° 95° (E) 10:12:13 437.505
BRITE-PL 01 Feb 10:07:00 10:10:52 19° 297° (WNW) 10:14:27 437.365/2234.400
CUTE 1.7 + AOD 2 01 Feb 10:12:24 10:14:48 15° 294° (WNW) 10:17:03 437.475
AIST 1 01 Feb 10:19:37 10:23:30 36° 92° (E) 10:27:27
POPSAT HIP 1 01 Feb 10:21:59 10:26:15 65° 259° (W) 10:30:33 437.405
DUCHIFAT 1 01 Feb 10:22:38 10:26:52 65° 259° (W) 10:31:10 145.980
Oscar 11 01 Feb 10:24:20 10:28:13 33° 289° (WNW) 10:32:03 145.826/435.025
PHONESAT 2.4 01 Feb 10:26:21 10:29:58 86° 187° (S) 10:33:37 2401.200-2431.200
UWE-3 01 Feb 10:26:40 10:31:03 54° 286° (WNW) 10:35:15 435.000/436.395/437.385
AISAT 01 Feb 10:30:15 10:34:43 58° 100° (E) 10:39:10 437.250
GONETS M04 01 Feb 10:39:47 10:46:36 26° 65° (ENE) 10:53:42
CINEMA 3 01 Feb 10:41:27 10:45:08 22° 294° (WNW) 10:48:34 145.822/145.860
PCSat 01 Feb 10:43:09 10:45:03 12° 36° (NE) 10:47:11 145.827
ESTCUBE 1 01 Feb 10:43:56 10:48:07 35° 97° (E) 10:52:18 437.505/2401.250
VERMONT LUNAR 01 Feb 10:45:44 10:49:11 64° 194° (SSW) 10:52:39 437.305
UNISAT 6 01 Feb 10:46:30 10:50:20 24° 267° (W) 10:54:03 437.425
CUBEBUG 1 01 Feb 10:54:55 10:59:10 43° 98° (E) 11:03:26 437.445
VELOX 1 01 Feb 10:56:42 11:01:13 74° 284° (WNW) 11:05:41 145.980
NANOSAT C BR1 01 Feb 10:58:53 11:02:29 25° 265° (W) 11:06:04 145.865
DELFI C3 01 Feb 10:59:27 11:02:02 16° 293° (WNW) 11:04:29 145.870
HUMSAT D 01 Feb 10:59:31 11:03:37 49° 287° (WNW) 11:07:38 437.325/437.525
UKube-1 01 Feb 11:01:45 11:05:24 26° 292° (WNW) 11:08:57 .
HO-68 01 Feb 11:09:32 11:13:30 15° 306° (NW) 11:17:07 435.675
QB50P2 01 Feb 11:16:08 11:19:01 17° 269° (W) 11:21:46 145.880/145.840
BUGSAT 1 01 Feb 11:17:49 11:20:55 20° 267° (W) 11:23:57 437.445
SO-50 01 Feb 11:19:52 11:22:26 14° 324° (NW) 11:24:55 436.795
BEESAT 2 01 Feb 11:23:45 11:26:46 19° 248° (WSW) 11:29:39 435.950
ZACube-1 01 Feb 11:24:04 11:26:58 17° 294° (WNW) 11:29:41 437.345
QB50P1 01 Feb 11:24:53 11:27:14 14° 270° (W) 11:29:24 145.935-145.965
DX 1 01 Feb 11:27:39 11:30:09 15° 296° (WNW) 11:32:27 434.975-435.025
RS-15 01 Feb 11:30:09 11:40:13 36° 36° (NE) 11:50:51 29.354- 29.394
CUBEBUG 2 01 Feb 11:32:57 11:34:11 11° 298° (WNW) 11:35:11 437.445
BEESAT 3 01 Feb 11:35:21 11:37:16 13° 250° (WSW) 11:39:00 437.485
FUNcube-1 01 Feb 11:35:27 11:37:40 13° 296° (WNW) 11:39:40 145.935
AIST 2 01 Feb 11:36:36 11:40:29 34° 245° (WSW) 11:44:16 435.215
50 SAT 01 Feb 11:40:35 11:43:48 22° 291° (WNW) 11:46:53 437.505
AIST 1 01 Feb 11:58:27 12:01:23 17° 290° (WNW) 12:04:12
SPROUT 01 Feb 12:02:45 12:07:04 59° 100° (E) 12:11:20 437.525
PHONESAT 2.4 01 Feb 12:04:58 12:08:25 41° 201° (SSW) 12:11:51 2401.200-2431.200
AISAT 01 Feb 12:08:24 12:10:55 14° 296° (WNW) 12:13:15 437.250
Oscar 19 01 Feb 12:21:05 12:26:12 61° 73° (ENE) 12:31:20 437.125/150
ESTCUBE 1 01 Feb 12:21:16 12:24:49 22° 293° (WNW) 12:28:16 437.505/2401.250
VERMONT LUNAR 01 Feb 12:24:16 12:26:57 20° 209° (SSW) 12:29:35 437.305
PCSat 01 Feb 12:24:19 12:29:43 61° 57° (ENE) 12:35:05 145.827
Gurwin Techsat 1B 01 Feb 12:24:41 12:27:57 17° 63° (ENE) 12:31:25 435.225
TISAT 1 01 Feb 12:28:03 12:32:22 74° 285° (WNW) 12:36:37 437.305
CUBEBUG 1 01 Feb 12:32:10 12:35:16 18° 294° (WNW) 12:38:14 437.445
GONETS M04 01 Feb 12:35:42 12:44:20 68° 266° (W) 12:52:54
ITAMSAT 1 01 Feb 12:45:18 12:50:00 37° 69° (ENE) 12:54:46 435.822/435.867
SWISSCUBE 01 Feb 12:51:24 12:55:36 30° 96° (E) 12:59:51 437.505
BEESAT 01 Feb 13:06:19 13:10:48 40° 98° (E) 13:15:18 436.000
ITUPSAT 1 01 Feb 13:12:20 13:16:56 45° 99° (E) 13:21:33 437.325
HORYU 2 01 Feb 13:22:06 13:24:43 16° 65° (ENE) 13:27:31 437.375
SPROUT 01 Feb 13:40:33 13:42:44 13° 296° (WNW) 13:44:43 437.525
RS-15 01 Feb 13:42:29 13:53:54 79° 241° (WSW) 14:05:48 29.354- 29.394
PHONESAT 2.4 01 Feb 13:45:23 13:46:27 11° 214° (SW) 13:47:24 2401.200-2431.200
STARS 01 Feb 13:54:33 13:57:11 16° 91° (E) 14:00:00 437.465
DANDE 01 Feb 13:57:28 14:02:46 28° 65° (ENE) 14:07:00 436.750
Gurwin Techsat 1B 01 Feb 14:02:12 14:07:27 64° 259° (WSW) 14:12:46 435.225
Oscar 19 01 Feb 14:02:49 14:06:03 16° 271° (W) 14:09:03 437.125/150
KKS-1 01 Feb 14:07:44 14:11:49 34° 97° (E) 14:15:54 437.445
CUSAT 1 01 Feb 14:07:47 14:13:12 39° 70° (ENE) 14:17:19 437.405
PCSat 01 Feb 14:09:00 14:12:42 18° 254° (WSW) 14:16:10 145.827
AO-7 01 Feb 14:16:36 14:24:20 45° 63° (ENE) 14:32:12 29.400- 29.500
ITAMSAT 1 01 Feb 14:25:14 14:29:36 27° 266° (W) 14:33:56 435.822/435.867
SWISSCUBE 01 Feb 14:29:19 14:33:25 28° 292° (WNW) 14:37:28 437.505
GONETS M04 01 Feb 14:37:01 14:39:43 11° 284° (WNW) 14:41:41
BEESAT 01 Feb 14:44:44 14:48:27 22° 294° (WNW) 14:52:03 436.000
JAS-2 01 Feb 14:45:59 14:49:53 22° 66° (ENE) 14:53:52 435.910
O/OREOS (USA 219) 01 Feb 14:46:00 14:49:57 31° 105° (ESE) 14:53:59 437.305
ITUPSAT 1 01 Feb 14:51:03 14:54:34 20° 294° (WNW) 14:57:58 437.325
HORYU 2 01 Feb 14:56:38 15:01:02 52° 260° (W) 15:05:27 437.375
M-CUBED/EXP-1 PRIME 01 Feb 15:04:00 15:06:47 24° 102° (ESE) 15:09:42 437.505
STARS 01 Feb 15:29:43 15:33:59 46° 288° (WNW) 15:38:13 437.465
AUBIESAT-1 01 Feb 15:33:46 15:37:04 53° 106° (ESE) 15:40:31 437.475
DANDE 01 Feb 15:40:54 15:46:20 33° 273° (W) 15:50:26 436.750
KKS-1 01 Feb 15:44:45 15:48:20 23° 292° (WNW) 15:51:46 437.445
CUSAT 1 01 Feb 15:51:40 15:55:40 20° 277° (W) 15:58:50 437.405
RS-15 01 Feb 15:57:35 16:04:54 18° 259° (W) 16:11:31 29.354- 29.394
AO-7 01 Feb 16:09:22 16:17:13 42° 262° (W) 16:24:59 29.400- 29.500
MOZHAYETS 4 01 Feb 16:12:20 16:16:22 30° 95° (E) 16:20:26
O/OREOS (USA 219) 01 Feb 16:25:39 16:29:25 25° 302° (WNW) 16:33:09 437.305
SO-50 01 Feb 16:29:06 16:31:45 15° 37° (NE) 16:34:33 436.795
JAS-2 01 Feb 16:29:40 16:34:51 44° 261° (W) 16:39:48 435.910
M-CUBED/EXP-1 PRIME 01 Feb 16:39:19 16:41:44 18° 295° (WNW) 16:44:06 437.505
Cubesat XI-IV 01 Feb 16:55:26 17:00:29 47° 71° (ENE) 17:05:37 437.490
CUTE-I 01 Feb 17:14:05 17:19:20 69° 74° (ENE) 17:24:41 437.470
YUBILEINY 01 Feb 17:39:21 17:45:11 21° 81° (E) 17:51:25 435.215
MOZHAYETS 4 01 Feb 17:49:43 17:53:32 26° 291° (WNW) 17:57:15
HO-68 01 Feb 18:03:49 18:07:36 16° 55° (NE) 18:11:43 435.675
SO-50 01 Feb 18:08:12 18:13:10 80° 58° (ENE) 18:18:05 436.795
STRAND 1 01 Feb 18:12:52 18:17:21 30° 95° (E) 18:21:53 437.568
CUBESAT XI-V 01 Feb 18:14:54 18:19:25 46° 98° (E) 18:23:57 437.345
PRISM 01 Feb 18:21:07 18:25:17 73° 102° (ESE) 18:29:27 437.425
Cubesat XI-IV 01 Feb 18:36:47 18:40:53 22° 268° (W) 18:44:52 437.490
CUTE-I 01 Feb 18:57:02 19:00:03 15° 271° (W) 19:02:47 437.470
AAUSAT CUBESAT 2 01 Feb 19:04:43 19:06:16 12° 65° (ENE) 19:08:01 437.432
CANX-2 01 Feb 19:05:04 19:08:19 22° 69° (ENE) 19:11:39 2200.000
DOVE 4 01 Feb 19:09:34 19:13:14 21° 65° (ENE) 19:17:09 437.250
GOMX 1 01 Feb 19:14:06 19:18:34 30° 68° (ENE) 19:23:18 467.674
CUTE 1.7 + AOD 2 01 Feb 19:27:57 19:31:49 35° 72° (ENE) 19:35:44 437.475
ISS 01 Feb 19:31:31 19:34:03 21° 134° (SE) 19:36:39 145.825
YUBILEINY 01 Feb 19:32:27 19:41:09 77° 280° (W) 19:49:55 435.215
BRITE-PL 01 Feb 19:37:09 19:42:16 68° 75° (ENE) 19:47:48 437.365/2234.400
Oscar 11 01 Feb 19:44:01 19:46:45 17° 67° (ENE) 19:49:38 145.826/435.025
HO-68 01 Feb 19:47:13 19:54:21 79° 72° (ENE) 20:01:32 435.675
UWE-3 01 Feb 19:49:29 19:51:33 13° 64° (ENE) 19:53:50 435.000/436.395/437.385
SO-50 01 Feb 19:51:02 19:53:10 12° 252° (WSW) 19:55:03 436.795
STRAND 1 01 Feb 19:51:58 19:56:34 33° 292° (WNW) 20:01:05 437.568
SEEDS 01 Feb 19:52:55 19:57:05 56° 75° (ENE) 20:01:16 437.485
CUBESAT XI-V 01 Feb 19:53:14 19:56:34 19° 294° (WNW) 19:59:47 437.345
PRISM 01 Feb 19:59:35 20:00:18 10° 297° (WNW) 20:00:46 437.425
CINEMA 3 01 Feb 20:04:40 20:09:14 38° 70° (ENE) 20:13:54 145.822/145.860
DELFI C3 01 Feb 20:11:41 20:14:59 25° 70° (ENE) 20:18:22 145.870
COMPASS 1 01 Feb 20:13:53 20:18:07 82° 77° (ENE) 20:22:21 437.405
HUMSAT D 01 Feb 20:18:54 20:19:52 11° 64° (ENE) 20:21:06 437.325/437.525
UKube-1 01 Feb 20:20:41 20:24:09 24° 68° (ENE) 20:27:43 .
AAUSAT CUBESAT 2 01 Feb 20:37:20 20:41:29 61° 260° (W) 20:45:39 437.432
CANX-2 01 Feb 20:40:15 20:44:07 32° 264° (W) 20:47:58 2200.000
ZACube-1 01 Feb 20:42:16 20:46:29 36° 71° (ENE) 20:50:43 437.345
DX 1 01 Feb 20:45:20 20:49:29 46° 72° (ENE) 20:53:42 434.975-435.025
DOVE 4 01 Feb 20:45:37 20:50:36 53° 262° (W) 20:55:48 437.250
CUBEBUG 2 01 Feb 20:50:58 20:55:41 64° 75° (ENE) 21:00:27 437.445
GOMX 1 01 Feb 20:51:52 20:56:35 35° 266° (W) 21:01:30 467.674
FUNcube-1 01 Feb 20:52:42 20:57:04 46° 73° (ENE) 21:01:30 145.935
50 SAT 01 Feb 20:53:11 20:55:57 18° 68° (ENE) 20:58:51 437.505
CUTE 1.7 + AOD 2 01 Feb 21:04:42 21:07:54 20° 268° (W) 21:10:59 437.475
ISS 01 Feb 21:07:14 21:10:23 42° 330° (NNW) 21:13:32 145.825
BRITE-PL 01 Feb 21:18:23 21:21:29 15° 274° (W) 21:24:25 437.365/2234.400
Oscar 11 01 Feb 21:18:29 21:22:39 44° 262° (W) 21:26:49 145.826/435.025
UWE-3 01 Feb 21:22:54 21:27:35 71° 258° (WSW) 21:32:19 435.000/436.395/437.385
AISAT 01 Feb 21:28:01 21:32:19 51° 73° (ENE) 21:36:42 437.250
SEEDS 01 Feb 21:31:35 21:33:21 12° 271° (W) 21:34:54 437.485
YUBILEINY 01 Feb 21:34:48 21:39:49 15° 303° (WNW) 21:44:19 435.215
HO-68 01 Feb 21:38:06 21:42:57 18° 271° (W) 21:47:27 435.675
ANTELSAT 01 Feb 21:38:55 21:41:43 17° 91° (E) 21:44:37 437.575/2403.000
CINEMA 3 01 Feb 21:42:24 21:46:32 25° 268° (W) 21:50:37 145.822/145.860
ESTCUBE 1 01 Feb 21:43:39 21:47:35 32° 70° (ENE) 21:51:37 437.505/2401.250
TIGRISAT 01 Feb 21:44:08 21:47:12 19° 91° (E) 21:50:20 435.000
DELFI C3 01 Feb 21:46:47 21:50:12 25° 265° (W) 21:53:32 145.870
HUMSAT D 01 Feb 21:50:48 21:55:09 75° 258° (WSW) 21:59:31 437.325/437.525
CUBEBUG 1 01 Feb 21:51:07 21:55:03 35° 71° (ENE) 21:59:04 437.445
POLYITAN 1 01 Feb 21:51:34 21:53:38 14° 90° (E) 21:55:54 437.675
VELOX 1 01 Feb 21:54:04 21:58:30 86° 257° (WSW) 22:03:00 145.980
UKube-1 01 Feb 21:56:25 22:00:14 29° 264° (W) 22:04:02 .
AIST 1 01 Feb 22:04:06 22:08:28 74° 264° (W) 22:12:50
POPSAT HIP 1 01 Feb 22:08:33 22:11:46 21° 93° (E) 22:15:03 437.405
DUCHIFAT 1 01 Feb 22:08:51 22:12:03 21° 93° (E) 22:15:20 145.980
ZACube-1 01 Feb 22:19:19 22:22:58 22° 267° (W) 22:26:31 437.345
DX 1 01 Feb 22:23:22 22:26:04 15° 269° (W) 22:28:35 434.975-435.025
50 SAT 01 Feb 22:26:59 22:30:50 37° 262° (W) 22:34:41 437.505
CUBEBUG 2 01 Feb 22:30:28 22:32:54 13° 272° (W) 22:35:05 437.445
FUNcube-1 01 Feb 22:30:33 22:33:42 17° 269° (W) 22:36:42 145.935
UNISAT 6 01 Feb 22:38:05 22:42:31 78° 102° (ESE) 22:46:50 437.425
NANOSAT C BR1 01 Feb 22:43:39 22:47:51 51° 99° (E) 22:52:02 145.865
ISS 01 Feb 22:45:35 22:47:31 14° 349° (N) 22:49:26 145.825
SPROUT 01 Feb 22:56:44 23:00:48 43° 73° (ENE) 23:04:57 437.525
BUGSAT 1 01 Feb 22:59:13 23:03:29 60° 100° (E) 23:07:43 437.445
QB50P2 01 Feb 23:00:13 23:04:33 82° 100° (E) 23:08:51 145.880/145.840
AISAT 01 Feb 23:06:44 23:09:20 15° 270° (W) 23:11:45 437.250
QB50P1 01 Feb 23:08:09 23:12:29 82° 284° (WNW) 23:16:46 145.935-145.965
ANTELSAT 01 Feb 23:14:38 23:18:49 41° 288° (WNW) 23:22:52 437.575/2403.000
TISAT 1 01 Feb 23:20:01 23:24:15 79° 76° (ENE) 23:28:33 437.305
TIGRISAT 01 Feb 23:20:05 23:24:11 37° 289° (WNW) 23:28:08 435.000
ESTCUBE 1 01 Feb 23:20:55 23:24:33 23° 266° (W) 23:28:07 437.505/2401.250
POLYITAN 1 01 Feb 23:25:45 23:29:58 51° 287° (WNW) 23:34:07 437.675
CUBEBUG 1 01 Feb 23:28:15 23:31:34 20° 267° (W) 23:34:48 437.445
GONETS M04 01 Feb 23:41:09 23:48:11 30° 85° (E) 23:55:28
POPSAT HIP 1 01 Feb 23:43:52 23:47:47 33° 289° (WNW) 23:51:36 437.405
DUCHIFAT 1 01 Feb 23:44:08 23:48:01 33° 289° (WNW) 23:51:50 145.980
BEESAT 3 01 Feb 23:52:03 23:53:22 12° 109° (ESE) 23:54:55 437.485
SWISSCUBE 01 Feb 23:57:55 00:02:10 34° 70° (ENE) 00:06:29 437.505
BEESAT 02 Feb 00:12:38 00:17:07 44° 72° (ENE) 00:21:41 436.000
UNISAT 6 02 Feb 00:17:48 00:18:44 10° 298° (WNW) 00:19:25 437.425
ITUPSAT 1 02 Feb 00:18:59 00:23:34 50° 72° (ENE) 00:28:12 437.325
NANOSAT C BR1 02 Feb 00:20:53 00:23:22 15° 295° (WNW) 00:25:39 145.865
ISS 02 Feb 00:23:13 00:25:02 14° 9° (N) 00:26:51 145.825
Oscar 19 02 Feb 00:33:47 00:37:38 22° 92° (E) 00:41:37 437.125/150
SPROUT 02 Feb 00:34:24 00:37:11 16° 269° (W) 00:39:49 437.525
BUGSAT 1 02 Feb 00:36:27 00:38:33 13° 295° (WNW) 00:40:25 437.445
STARS 02 Feb 00:52:05 00:54:31 15° 65° (ENE) 00:57:09 437.465
O/OREOS (USA 219) 02 Feb 00:55:37 01:00:11 60° 65° (ENE) 01:04:44 437.305
ITAMSAT 1 02 Feb 01:00:06 01:02:18 13° 88° (E) 01:04:49 435.822/435.867
KKS-1 02 Feb 01:05:52 01:09:47 31° 70° (ENE) 01:13:46 437.445
BEESAT 2 02 Feb 01:16:57 01:21:05 88° 119° (ESE) 01:25:17 435.950
BEESAT 3 02 Feb 01:26:58 01:31:02 64° 305° (NW) 01:35:10 437.485
AIST 2 02 Feb 01:33:59 01:38:07 54° 118° (ESE) 01:42:19 435.215
CUSAT 1 02 Feb 01:35:51 01:38:05 12° 79° (E) 01:40:59 437.405
GONETS M04 02 Feb 01:35:57 01:44:35 59° 283° (WNW) 01:53:10
SWISSCUBE 02 Feb 01:36:12 01:40:08 24° 266° (W) 01:43:58 437.505
BEESAT 02 Feb 01:51:50 01:55:16 19° 268° (W) 01:58:32 436.000
M-CUBED/EXP-1 PRIME 02 Feb 01:52:57 01:56:32 36° 68° (ENE) 01:59:54 437.505
ITUPSAT 1 02 Feb 01:58:43 02:01:50 17° 269° (W) 02:04:45 437.325
ISS 02 Feb 01:59:08 02:02:14 36° 28° (NNE) 02:05:20 145.825
RS-15 02 Feb 02:00:33 02:05:11 14° 100° (E) 02:10:46 29.354- 29.394
Oscar 19 02 Feb 02:12:21 02:17:15 44° 289° (WNW) 02:22:04 437.125/150
Gurwin Techsat 1B 02 Feb 02:18:41 02:23:52 52° 99° (E) 02:29:04 435.225
AO-7 02 Feb 02:21:53 02:24:11 12° 84° (E) 02:27:15 29.400- 29.500
AUBIESAT-1 02 Feb 02:22:22 02:26:15 77° 71° (ENE) 02:29:51 437.475
STARS 02 Feb 02:26:15 02:30:37 54° 260° (W) 02:35:01 437.465
O/OREOS (USA 219) 02 Feb 02:36:53 02:39:09 13° 260° (W) 02:41:10 437.305
ITAMSAT 1 02 Feb 02:37:15 02:42:29 74° 286° (WNW) 02:47:42 435.822/435.867
KKS-1 02 Feb 02:42:45 02:46:28 25° 266° (W) 02:50:09 437.445
HORYU 2 02 Feb 02:48:41 02:52:33 30° 96° (E) 02:56:28 437.375
BEESAT 2 02 Feb 02:58:02 02:59:58 13° 321° (NW) 03:01:47 435.950
DANDE 02 Feb 03:04:54 03:12:51 49° 92° (E) 03:20:59 436.750
PCSat 02 Feb 03:05:33 03:10:51 60° 115° (ESE) 03:16:13 145.827
CUSAT 1 02 Feb 03:11:45 03:19:56 61° 95° (E) 03:28:02 437.405
AIST 2 02 Feb 03:14:00 03:17:06 19° 317° (NW) 03:20:06 435.215
MOZHAYETS 4 02 Feb 03:14:18 03:18:13 29° 69° (ENE) 03:22:10
M-CUBED/EXP-1 PRIME 02 Feb 03:29:18 03:31:39 15° 261° (W) 03:33:48 437.505
ISS 02 Feb 03:35:47 03:38:38 26° 225° (SW) 03:41:26 145.825
JAS-2 02 Feb 03:37:36 03:42:07 23° 93° (E) 03:47:13 435.910
GONETS M04 02 Feb 03:41:38 03:43:53 11° 308° (NW) 03:45:26
Gurwin Techsat 1B 02 Feb 03:59:35 04:03:31 21° 296° (WNW) 04:07:17 435.225
RS-15 02 Feb 04:05:02 04:15:51 73° 117° (ESE) 04:26:47 29.354- 29.394
AO-7 02 Feb 04:10:24 04:18:44 70° 105° (ESE) 04:27:00 29.400- 29.500
HORYU 2 02 Feb 04:25:29 04:29:09 25° 292° (WNW) 04:32:44 437.375
DANDE 02 Feb 04:48:28 04:56:28 42° 289° (WNW) 05:04:22 436.750
PCSat 02 Feb 04:50:28 04:54:44 22° 314° (NW) 04:58:55 145.827
MOZHAYETS 4 02 Feb 04:51:29 04:55:26 27° 266° (W) 04:59:18
CUSAT 1 02 Feb 04:55:58 05:03:26 33° 292° (WNW) 05:10:31 437.405
PRISM 02 Feb 05:11:26 05:15:24 50° 73° (ENE) 05:19:25 437.425
Cubesat XI-IV 02 Feb 05:13:51 05:17:33 19° 91° (E) 05:21:26 437.490
CUBESAT XI-V 02 Feb 05:18:10 05:22:29 43° 72° (ENE) 05:26:53 437.345
JAS-2 02 Feb 05:21:48 05:27:30 55° 287° (WNW) 05:33:53 435.910
STRAND 1 02 Feb 05:28:27 05:33:12 42° 71° (ENE) 05:38:02 437.568
CUTE-I 02 Feb 05:31:58 05:36:31 28° 94° (E) 05:41:08 437.470
YUBILEINY 02 Feb 05:42:59 05:51:30 53° 75° (ENE) 06:00:06 435.215
AO-7 02 Feb 06:04:08 06:10:57 28° 303° (WNW) 06:17:32 29.400- 29.500
RS-15 02 Feb 06:19:17 06:29:15 37° 323° (NW) 06:39:15 29.354- 29.394
PHONESAT 2.4 02 Feb 06:34:31 06:37:10 20° 151° (SSE) 06:39:53 2401.200-2431.200
VERMONT LUNAR 02 Feb 06:47:16 06:50:29 36° 157° (SSE) 06:53:42 437.305
PRISM 02 Feb 06:49:25 06:51:19 12° 270° (W) 06:52:59 437.425
Cubesat XI-IV 02 Feb 06:52:48 06:58:03 54° 288° (WNW) 07:03:16 437.490
CUBESAT XI-V 02 Feb 06:56:56 07:00:12 18° 269° (W) 07:03:20 437.345
STRAND 1 02 Feb 07:08:36 07:12:38 23° 267° (W) 07:16:33 437.568
CUTE-I 02 Feb 07:11:45 07:16:42 37° 291° (WNW) 07:21:34 437.470
HO-68 02 Feb 07:17:49 07:20:59 14° 86° (E) 07:24:39 435.675
